Time,TemperatureF,DewpointF,PressureIn,WindDirection,WindDirectionDegrees,WindSpeedMPH,WindSpeedGustMPH,Humidity,HourlyPrecipIn,Conditions,Clouds,dailyrainin,SoftwareType,DateUTC
2013-02-08 00:21:00,17.0,13.0,-100.00,ESE,105,2.0,4.0,87,0.00,,,0.00,,2013-02-08 09:21:00,
2013-02-08 00:31:00,17.0,13.0,-100.00,ESE,105,2.0,4.0,87,0.00,,,0.00,,2013-02-08 09:31:00,
2013-02-08 00:42:00,17.0,13.0,-100.00,ESE,105,2.0,4.0,87,0.00,,,0.00,,2013-02-08 09:42:00,
2013-02-08 00:52:00,17.0,14.0,-100.00,ENE,60,1.0,4.0,87,0.00,,,0.00,,2013-02-08 09:52:00,
2013-02-08 01:01:00,17.0,14.0,-100.00,ENE,60,1.0,4.0,87,0.00,,,0.00,,2013-02-08 10:01:00,
2013-02-08 01:22:00,17.0,14.0,-100.00,East,100,1.0,3.0,88,0.00,,,0.00,,2013-02-08 10:22:00,
2013-02-08 01:31:00,17.0,14.0,-100.00,East,100,1.0,3.0,88,0.00,,,0.00,,2013-02-08 10:31:00,
2013-02-08 01:41:00,17.0,14.0,-100.00,East,100,1.0,3.0,88,0.00,,,0.00,,2013-02-08 10:41:00,
2013-02-08 02:21:00,17.0,13.0,-100.00,SSE,150,4.0,6.0,85,0.00,,,0.00,,2013-02-08 11:21:00,
2013-02-08 02:32:00,17.0,13.0,-100.00,SSE,150,4.0,6.0,85,0.00,,,0.00,,2013-02-08 11:32:00,
2013-02-08 02:41:00,17.0,13.0,-100.00,SSE,150,4.0,6.0,85,0.00,,,0.00,,2013-02-08 11:41:00,
2013-02-08 02:52:00,17.0,13.0,-100.00,SE,135,5.0,7.0,85,0.00,,,0.00,,2013-02-08 11:52:00,
2013-02-08 03:01:00,17.0,13.0,-100.00,SE,135,5.0,7.0,85,0.00,,,0.00,,2013-02-08 12:01:00,
2013-02-08 03:11:00,17.0,13.0,-100.00,SE,135,5.0,7.0,85,0.00,,,0.00,,2013-02-08 12:11:00,
2013-02-08 03:22:00,17.0,13.0,-100.00,ESE,110,6.0,7.0,83,0.00,,,0.00,,2013-02-08 12:22:00,
2013-02-08 03:32:00,17.0,13.0,-100.00,ESE,110,6.0,7.0,83,0.00,,,0.00,,2013-02-08 12:32:00,
2013-02-08 03:42:00,17.0,13.0,-100.00,ESE,110,6.0,7.0,83,0.00,,,0.00,,2013-02-08 12:42:00,
2013-02-08 04:52:00,16.0,11.0,-100.00,SE,145,9.0,11.0,79,0.00,,,0.00,,2013-02-08 13:52:00,
2013-02-08 05:02:00,16.0,11.0,-100.00,SE,145,9.0,11.0,79,0.00,,,0.00,,2013-02-08 14:02:00,
2013-02-08 05:11:00,16.0,11.0,-100.00,SE,145,9.0,11.0,79,0.00,,,0.00,,2013-02-08 14:11:00,
2013-02-08 05:21:00,16.0,11.0,-100.00,SE,145,9.0,11.0,79,0.00,,,0.00,,2013-02-08 14:21:00,
2013-02-08 05:52:00,14.0,10.0,-100.00,SSE,155,6.0,9.0,82,0.00,,,0.00,,2013-02-08 14:52:00,
2013-02-08 06:02:00,14.0,10.0,-100.00,SSE,155,6.0,9.0,82,0.00,,,0.00,,2013-02-08 15:02:00,
2013-02-08 06:11:00,14.0,10.0,-100.00,SSE,155,6.0,9.0,82,0.00,,,0.00,,2013-02-08 15:11:00,
2013-02-08 06:21:00,14.0,9.0,-100.00,SSE,160,7.0,9.0,82,0.00,,,0.00,,2013-02-08 15:21:00,
2013-02-08 06:32:00,14.0,9.0,-100.00,SSE,160,7.0,9.0,82,0.00,,,0.00,,2013-02-08 15:32:00,
2013-02-08 06:42:00,14.0,9.0,-100.00,SSE,160,7.0,9.0,82,0.00,,,0.00,,2013-02-08 15:42:00,
2013-02-08 06:52:00,14.0,9.0,-100.00,SSE,150,10.0,12.0,82,0.00,,,0.00,,2013-02-08 15:52:00,
2013-02-08 07:01:00,14.0,9.0,-100.00,SSE,150,10.0,12.0,82,0.00,,,0.00,,2013-02-08 16:01:00,
2013-02-08 07:11:00,14.0,9.0,-100.00,SSE,150,10.0,12.0,82,0.00,,,0.00,,2013-02-08 16:11:00,
2013-02-08 07:21:00,14.0,9.0,-100.00,SSE,155,9.0,12.0,81,0.00,,,0.00,,2013-02-08 16:21:00,
2013-02-08 07:32:00,14.0,9.0,-100.00,SSE,155,9.0,12.0,81,0.00,,,0.00,,2013-02-08 16:32:00,
2013-02-08 07:41:00,14.0,9.0,-100.00,SSE,155,9.0,12.0,81,0.00,,,0.00,,2013-02-08 16:41:00,
2013-02-08 07:52:00,14.0,9.0,-100.00,SE,145,9.0,11.0,81,0.00,,,0.00,,2013-02-08 16:52:00,
2013-02-08 08:03:00,14.0,9.0,-100.00,SE,145,9.0,11.0,81,0.00,,,0.00,,2013-02-08 17:03:00,
2013-02-08 08:11:00,14.0,9.0,-100.00,SE,145,9.0,11.0,81,0.00,,,0.00,,2013-02-08 17:11:00,
2013-02-08 08:21:00,12.0,8.0,-100.00,SE,145,10.0,12.0,83,0.00,,,0.00,,2013-02-08 17:21:00,
2013-02-08 08:32:00,12.0,8.0,-100.00,SE,145,10.0,12.0,83,0.00,,,0.00,,2013-02-08 17:32:00,
2013-02-08 08:42:00,12.0,8.0,-100.00,SE,145,10.0,12.0,83,0.00,,,0.00,,2013-02-08 17:42:00,
2013-02-08 08:52:00,13.0,9.0,-100.00,SE,145,9.0,11.0,83,0.00,,,0.00,,2013-02-08 17:52:00,
2013-02-08 09:01:00,13.0,9.0,-100.00,SE,145,9.0,11.0,83,0.00,,,0.00,,2013-02-08 18:01:00,
2013-02-08 09:11:00,13.0,9.0,-100.00,SE,145,9.0,11.0,83,0.00,,,0.00,,2013-02-08 18:11:00,
2013-02-08 09:23:00,11.0,8.0,-100.00,SSE,150,9.0,11.0,86,0.00,,,0.00,,2013-02-08 18:23:00,
2013-02-08 09:33:00,11.0,8.0,-100.00,SSE,150,9.0,11.0,86,0.00,,,0.00,,2013-02-08 18:33:00,
2013-02-08 09:42:00,11.0,8.0,-100.00,SSE,150,9.0,11.0,86,0.00,,,0.00,,2013-02-08 18:42:00,
2013-02-08 09:52:00,9.0,6.0,-100.00,SE,135,10.0,12.0,87,0.00,,,0.00,,2013-02-08 18:52:00,
2013-02-08 10:01:00,9.0,6.0,-100.00,SE,135,10.0,12.0,87,0.00,,,0.00,,2013-02-08 19:01:00,
2013-02-08 10:11:00,9.0,6.0,-100.00,SE,135,10.0,12.0,87,0.00,,,0.00,,2013-02-08 19:11:00,
2013-02-08 10:22:00,11.0,8.0,-100.00,SE,145,11.0,15.0,88,0.00,,,0.00,,2013-02-08 19:22:00,
2013-02-08 10:32:00,11.0,8.0,-100.00,SE,145,11.0,15.0,88,0.00,,,0.00,,2013-02-08 19:32:00,
2013-02-08 10:42:00,11.0,8.0,-100.00,SE,145,11.0,15.0,88,0.00,,,0.00,,2013-02-08 19:42:00,
2013-02-08 10:52:00,10.0,7.0,-100.00,SSE,150,12.0,17.0,88,0.00,,,0.00,,2013-02-08 19:52:00,
2013-02-08 11:01:00,10.0,7.0,-100.00,SSE,150,12.0,17.0,88,0.00,,,0.00,,2013-02-08 20:01:00,
2013-02-08 11:11:00,10.0,7.0,-100.00,SSE,150,12.0,17.0,88,0.00,,,0.00,,2013-02-08 20:11:00,
2013-02-08 11:21:00,9.0,6.0,-100.00,SSE,150,12.0,17.0,88,0.00,,,0.00,,2013-02-08 20:21:00,
2013-02-08 11:31:00,9.0,6.0,-100.00,SSE,150,12.0,17.0,88,0.00,,,0.00,,2013-02-08 20:31:00,
2013-02-08 11:41:00,9.0,6.0,-100.00,SSE,150,12.0,17.0,88,0.00,,,0.00,,2013-02-08 20:41:00,
2013-02-08 11:52:00,9.0,6.0,-100.00,SSE,155,12.0,15.0,87,0.00,,,0.00,,2013-02-08 20:52:00,
2013-02-08 12:01:00,9.0,6.0,-100.00,SSE,155,12.0,15.0,87,0.00,,,0.00,,2013-02-08 21:01:00,
2013-02-08 12:11:00,9.0,6.0,-100.00,SSE,155,12.0,15.0,87,0.00,,,0.00,,2013-02-08 21:11:00,
2013-02-08 12:21:00,9.0,6.0,-100.00,SSE,150,11.0,15.0,87,0.00,,,0.00,,2013-02-08 21:21:00,
2013-02-08 12:32:00,9.0,6.0,-100.00,SSE,150,11.0,15.0,87,0.00,,,0.00,,2013-02-08 21:32:00,
2013-02-08 12:42:00,9.0,6.0,-100.00,SSE,150,11.0,15.0,87,0.00,,,0.00,,2013-02-08 21:42:00,
2013-02-08 12:52:00,10.0,8.0,-100.00,SSE,155,9.0,14.0,88,0.00,,,0.00,,2013-02-08 21:52:00,
2013-02-08 13:01:00,10.0,8.0,-100.00,SSE,155,9.0,14.0,88,0.00,,,0.00,,2013-02-08 22:01:00,
2013-02-08 13:11:00,10.0,8.0,-100.00,SSE,155,9.0,14.0,88,0.00,,,0.00,,2013-02-08 22:11:00,
2013-02-08 13:21:00,10.0,7.0,-100.00,SSE,160,9.0,15.0,88,0.00,,,0.00,,2013-02-08 22:21:00,
2013-02-08 13:32:00,10.0,7.0,-100.00,SSE,160,9.0,15.0,88,0.00,,,0.00,,2013-02-08 22:32:00,
2013-02-08 13:42:00,10.0,7.0,-100.00,SSE,160,9.0,15.0,88,0.00,,,0.00,,2013-02-08 22:42:00,
2013-02-08 13:52:00,10.0,7.0,-100.00,SSE,160,6.0,12.0,88,0.00,,,0.00,,2013-02-08 22:52:00,
2013-02-08 14:01:00,10.0,7.0,-100.00,SSE,160,6.0,12.0,88,0.00,,,0.00,,2013-02-08 23:01:00,
2013-02-08 14:11:00,10.0,7.0,-100.00,SSE,160,6.0,12.0,88,0.00,,,0.00,,2013-02-08 23:11:00,
2013-02-08 14:21:00,9.0,7.0,-100.00,SSE,150,6.0,11.0,88,0.00,,,0.00,,2013-02-08 23:21:00,
2013-02-08 14:31:00,9.0,7.0,-100.00,SSE,150,6.0,11.0,88,0.00,,,0.00,,2013-02-08 23:31:00,
2013-02-08 14:41:00,9.0,7.0,-100.00,SSE,150,6.0,11.0,88,0.00,,,0.00,,2013-02-08 23:41:00,
2013-02-08 14:52:00,9.0,6.0,-100.00,SE,145,7.0,10.0,87,0.00,,,0.00,,2013-02-08 23:52:00,
2013-02-08 15:01:00,9.0,6.0,-100.00,SE,145,7.0,10.0,87,0.00,,,0.00,,2013-02-09 00:01:00,
2013-02-08 15:21:00,9.0,6.0,-100.00,SSE,150,4.0,7.0,87,0.00,,,0.00,,2013-02-09 00:21:00,
2013-02-08 15:32:00,9.0,6.0,-100.00,SSE,150,4.0,7.0,87,0.00,,,0.00,,2013-02-09 00:32:00,
2013-02-08 15:41:00,9.0,6.0,-100.00,SSE,150,4.0,7.0,87,0.00,,,0.00,,2013-02-09 00:41:00,
2013-02-08 15:52:00,10.0,6.0,-100.00,SE,140,5.0,10.0,87,0.00,,,0.00,,2013-02-09 00:52:00,
2013-02-08 16:01:00,10.0,6.0,-100.00,SE,140,5.0,10.0,87,0.00,,,0.00,,2013-02-09 01:01:00,
2013-02-08 16:11:00,10.0,6.0,-100.00,SE,140,5.0,10.0,87,0.00,,,0.00,,2013-02-09 01:11:00,
2013-02-08 16:21:00,9.0,6.0,-100.00,SSE,160,6.0,9.0,87,0.00,,,0.00,,2013-02-09 01:21:00,
2013-02-08 16:31:00,9.0,6.0,-100.00,SSE,160,6.0,9.0,87,0.00,,,0.00,,2013-02-09 01:31:00,
2013-02-08 16:41:00,9.0,6.0,-100.00,SSE,160,6.0,9.0,87,0.00,,,0.00,,2013-02-09 01:41:00,
2013-02-08 16:52:00,10.0,7.0,-100.00,SE,140,5.0,7.0,88,0.00,,,0.00,,2013-02-09 01:52:00,
2013-02-08 17:01:00,10.0,7.0,-100.00,SE,140,5.0,7.0,88,0.00,,,0.00,,2013-02-09 02:01:00,
2013-02-08 17:11:00,10.0,7.0,-100.00,SE,140,5.0,7.0,88,0.00,,,0.00,,2013-02-09 02:11:00,
2013-02-08 17:21:00,10.0,8.0,-100.00,SSE,155,6.0,7.0,88,0.00,,,0.00,,2013-02-09 02:21:00,
2013-02-08 17:32:00,10.0,8.0,-100.00,SSE,155,6.0,7.0,88,0.00,,,0.00,,2013-02-09 02:32:00,
2013-02-08 17:41:00,10.0,8.0,-100.00,SSE,155,6.0,7.0,88,0.00,,,0.00,,2013-02-09 02:41:00,
2013-02-08 17:52:00,10.0,8.0,-100.00,SSE,150,6.0,8.0,88,0.00,,,0.00,,2013-02-09 02:52:00,
2013-02-08 18:01:00,10.0,8.0,-100.00,SSE,150,6.0,8.0,88,0.00,,,0.00,,2013-02-09 03:01:00,
2013-02-08 18:11:00,10.0,8.0,-100.00,SSE,150,6.0,8.0,88,0.00,,,0.00,,2013-02-09 03:11:00,
2013-02-08 18:21:00,10.0,7.0,-100.00,SE,135,4.0,6.0,88,0.00,,,0.00,,2013-02-09 03:21:00,
2013-02-08 18:32:00,10.0,7.0,-100.00,SE,135,4.0,6.0,88,0.00,,,0.00,,2013-02-09 03:32:00,
2013-02-08 18:41:00,10.0,7.0,-100.00,SE,135,4.0,6.0,88,0.00,,,0.00,,2013-02-09 03:41:00,
2013-02-08 18:52:00,10.0,7.0,-100.00,SE,125,4.0,6.0,88,0.00,,,0.00,,2013-02-09 03:52:00,
2013-02-08 19:02:00,10.0,7.0,-100.00,SE,125,4.0,6.0,88,0.00,,,0.00,,2013-02-09 04:02:00,
2013-02-08 19:11:00,10.0,7.0,-100.00,SE,125,4.0,6.0,88,0.00,,,0.00,,2013-02-09 04:11:00,
2013-02-08 19:22:00,10.0,7.0,-100.00,SSE,160,6.0,7.0,88,0.00,,,0.00,,2013-02-09 04:22:00,
2013-02-08 19:32:00,10.0,7.0,-100.00,SSE,160,6.0,7.0,88,0.00,,,0.00,,2013-02-09 04:32:00,
2013-02-08 19:42:00,10.0,7.0,-100.00,SSE,160,6.0,7.0,88,0.00,,,0.00,,2013-02-09 04:42:00,
2013-02-08 19:52:00,9.0,7.0,-100.00,SSE,165,5.0,6.0,88,0.00,,,0.00,,2013-02-09 04:52:00,
2013-02-08 20:02:00,9.0,7.0,-100.00,SSE,165,5.0,6.0,88,0.00,,,0.00,,2013-02-09 05:02:00,
2013-02-08 20:12:00,9.0,7.0,-100.00,SSE,165,5.0,6.0,88,0.00,,,0.00,,2013-02-09 05:12:00,
2013-02-08 20:22:00,9.0,7.0,-100.00,SE,145,7.0,7.0,88,0.00,,,0.00,,2013-02-09 05:22:00,
2013-02-08 20:31:00,9.0,7.0,-100.00,SE,145,7.0,7.0,88,0.00,,,0.00,,2013-02-09 05:31:00,
2013-02-08 20:41:00,9.0,7.0,-100.00,SE,145,7.0,7.0,88,0.00,,,0.00,,2013-02-09 05:41:00,
2013-02-08 20:52:00,10.0,7.0,-100.00,SSE,155,5.0,7.0,88,0.00,,,0.00,,2013-02-09 05:52:00,
2013-02-08 21:01:00,10.0,7.0,-100.00,SSE,155,5.0,7.0,88,0.00,,,0.00,,2013-02-09 06:01:00,
2013-02-08 21:11:00,10.0,7.0,-100.00,SSE,155,5.0,7.0,88,0.00,,,0.00,,2013-02-09 06:11:00,
2013-02-08 21:21:00,10.0,7.0,-100.00,SE,140,7.0,8.0,88,0.00,,,0.00,,2013-02-09 06:21:00,
2013-02-08 21:31:00,10.0,7.0,-100.00,SE,140,7.0,8.0,88,0.00,,,0.00,,2013-02-09 06:31:00,
2013-02-08 21:41:00,10.0,7.0,-100.00,SE,140,7.0,8.0,88,0.00,,,0.00,,2013-02-09 06:41:00,
2013-02-08 21:52:00,12.0,9.0,-100.00,SE,140,6.0,7.0,88,0.00,,,0.00,,2013-02-09 06:52:00,
2013-02-08 22:01:00,12.0,9.0,-100.00,SE,140,6.0,7.0,88,0.00,,,0.00,,2013-02-09 07:01:00,
2013-02-08 22:11:00,12.0,9.0,-100.00,SE,140,6.0,7.0,88,0.00,,,0.00,,2013-02-09 07:11:00,
2013-02-08 22:21:00,12.0,9.0,-100.00,SSE,150,6.0,8.0,89,0.00,,,0.00,,2013-02-09 07:21:00,
2013-02-08 22:31:00,12.0,9.0,-100.00,SSE,150,6.0,8.0,89,0.00,,,0.00,,2013-02-09 07:31:00,
2013-02-08 22:42:00,12.0,9.0,-100.00,SSE,150,6.0,8.0,89,0.00,,,0.00,,2013-02-09 07:42:00,
2013-02-08 22:52:00,14.0,11.0,-100.00,SE,145,5.0,8.0,89,0.00,,,0.00,,2013-02-09 07:52:00,
2013-02-08 23:01:00,14.0,11.0,-100.00,SE,145,5.0,8.0,89,0.00,,,0.00,,2013-02-09 08:01:00,
2013-02-08 23:10:00,14.0,12.0,-100.00,SE,140,3.0,6.0,89,0.00,,,0.00,,2013-02-09 08:10:00,
2013-02-08 23:11:00,14.0,11.0,-100.00,SE,145,5.0,8.0,89,0.00,,,0.00,,2013-02-09 08:11:00,
2013-02-08 23:21:00,14.0,11.0,-100.00,SE,145,5.0,8.0,89,0.00,,,0.00,,2013-02-09 08:21:00,
2013-02-08 23:52:00,14.0,12.0,-100.00,SE,140,3.0,6.0,89,0.00,,,0.00,,2013-02-09 08:52:00,